Wind_Speed
7 6 4 4 3 1 0 2 4 5 5 4 4 6 6 5 6 5 3 2 3 3 2 1 1 3 3 3 4 5 6 7 7
4 4 3 4 3 1 1 1 1 3 4 5 5 4 4 5 6 6 6 5 3 2 1 1 2 4 5 5 5 5 6 7 8
5 4 3 2 1 2 1 2 3 3 4 5 6 6 5 3 3 4 6 7 7 6 5 4 5 6 7 7 6 7 8 8 9
6 5 5 5 6 5 4 3 2 3 4 4 6 7 7 6 5 6 4 3 4 5 6 7 8 7 8 10 9 9 10 11 11
10 9 8 8 9 8 8 7 5 5 5 5 6 8 9 9 9 9 7 6 6 5 4 4 6 10 7 8 11 11 11 11 12
14 14 13 12 12 12 10 9 8 8 8 7 7 8 9 10 14 12 12 11 11 10 7 7 7 6 8 9 8 10 12 12 11
18 18 18 18 17 17 16 14 13 13 12 12 11 10 10 11 15 13 15 15 15 15 14 11 10 10 10 11 11 10 11 12 11
18 19 21 21 21 21 20 20 20 18 17 16 17 16 14 14 16 15 17 18 18 19 20 20 16 12 14 13 14 12 12 13 14
18 18 18 19 19 21 22 23 24 24 23 22 22 18 19 21 21 19 19 19 19 20 22 22 22 22 19 19 17 16 14 15 14
22 22 22 22 22 22 23 23 24 24 25 26 26 28 27 24 25 22 25 24 23 22 22 21 20 19 20 19 18 18 19 18 19
24 24 24 24 24 24 25 25 26 26 26 27 26 27 29 30 32 32 31 25 27 27 27 25 24 23 24 21 22 20 21 22 21
25 25 25 25 26 26 26 26 27 27 28 29 29 29 30 29 31 31 33 35 36 34 32 31 29 29 28 27 27 26 24 24 25
28 28 28 28 28 28 28 28 28 28 29 29 30 30 31 31 33 34 35 35 36 36 38 37 38 37 35 33 33 32 29 30 29
31 31 31 31 31 31 30 29 28 27 27 27 29 29 30 32 33 34 36 36 38 39 39 39 42 44 41 39 41 39 36 35 35
32 33 33 32 32 31 31 30 29 28 27 27 28 29 30 31 32 34 36 37 39 40 41 42 43 43 44 45 45 44 43 43 40
32 32 32 31 31 31 31 32 31 31 31 30 30 32 34 35 37 38 39 38 40 40 42 43 45 46 48 47 50 49 48 46 45
33 32 31 31 31 31 31 31 33 34 34 35 35 35 37 35 37 38 41 41 42 43 44 44 46 48 50 51 53 51 52 52 51
35 34 33 32 32 32 32 33 34 37 39 38 38 39 42 43 42 40 39 42 42 44 45 47 48 48 50 53 54 55 56 56 56
36 36 35 35 35 35 35 36 38 40 43 46 46 47 48 47 48 44 42 43 42 44 45 47 48 51 51 52 54 56 58 59 60
38 38 38 38 38 38 38 39 41 44 47 50 53 55 56 54 53 53 46 44 44 45 44 46 47 50 51 54 55 54 57 60 62
Wind_Direction
134 138 136 112 108 86 98 176 201 210 197 194 194 173 176 183 180 190 208 179 146 162 144 121 157 187 194 190 197 204 215 211 229
152 135 144 150 148 174 108 180 198 192 210 224 207 228 211 229 218 224 236 253 266 255 206 264 264 247 234 231 225 231 232 232 238
210 234 223 210 206 213 198 197 227 210 204 215 220 220 238 238 253 256 246 248 256 258 260 257 265 269 259 246 256 254 253 248 245
245 241 240 246 256 266 256 264 243 222 236 238 230 230 228 236 244 250 240 239 240 251 259 256 258 272 280 274 265 267 260 260 260
250 254 246 250 260 264 256 241 245 261 246 239 242 242 238 246 241 240 240 246 240 235 251 257 253 257 259 270 282 278 271 268 265
249 251 251 251 260 261 258 255 249 244 246 248 247 244 242 241 250 251 252 248 250 259 250 244 249 254 261 261 268 275 285 278 276
252 256 257 257 256 259 264 265 263 259 251 247 245 250 255 249 250 245 250 252 251 255 259 260 256 251 257 263 266 265 265 278 282
251 255 258 259 261 262 263 265 266 264 264 267 258 254 253 253 258 257 253 251 252 248 251 255 265 268 261 258 257 255 250 252 263
261 261 261 262 262 263 264 264 265 266 264 258 259 267 268 263 261 255 255 256 256 255 254 255 261 270 275 264 257 248 247 244 244
264 263 263 264 265 267 269 269 268 267 266 265 262 260 260 259 263 271 262 259 257 254 252 257 259 260 259 264 267 261 249 245 245
266 267 267 268 268 268 267 266 268 270 270 270 268 265 264 265 264 260 262 264 265 259 255 252 254 256 257 261 259 260 264 256 257
271 271 270 269 269 269 269 270 270 270 269 268 268 269 268 268 267 266 264 262 260 259 260 258 254 253 254 257 262 258 260 261 261
273 273 274 274 272 271 270 269 268 268 268 269 270 269 268 268 267 267 267 267 267 265 262 257 259 258 257 255 256 258 258 258 257
271 273 272 272 272 272 271 270 269 268 269 269 270 271 272 272 273 271 269 267 266 267 265 261 259 261 258 257 257 256 257 256 260
270 271 271 271 271 270 269 269 267 266 264 266 270 273 273 273 274 275 275 273 271 268 266 264 262 259 257 256 256 257 257 260 258
270 270 269 268 267 267 269 269 268 268 271 273 277 283 283 283 283 280 279 276 274 270 267 265 263 261 259 257 256 257 258 255 258
271 271 270 269 269 269 269 270 272 272 272 277 280 284 287 284 285 285 282 280 277 274 271 267 262 260 259 257 256 256 255 255 254
271 270 270 270 270 270 271 274 277 281 282 283 290 294 293 292 287 285 283 280 277 274 271 270 268 263 258 257 256 254 254 253 254
269 269 270 271 272 274 277 281 284 287 290 294 298 301 301 299 293 287 285 280 274 272 270 268 266 266 265 261 257 254 253 252 252
269 270 271 273 275 278 282 286 290 293 296 298 301 304 305 303 299 294 287 282 277 272 267 265 265 265 264 263 263 259 254 252 251
Height
3166 3167 3167 3168 3169 3170 3170 3170 3170 3172 3173 3174 3175 3175 3176 3177 3177 3178 3178 3178 3178 3178 3179 3179 3180 3181 3181 3182 3182 3183 3183 3184 3184
3166 3167 3167 3168 3168 3170 3170 3171 3171 3172 3173 3174 3175 3176 3176 3176 3177 3178 3178 3179 3179 3179 3179 3179 3180 3180 3181 3182 3182 3183 3183 3184 3184
3166 3167 3167 3168 3169 3170 3170 3170 3171 3172 3172 3173 3174 3175 3177 3177 3178 3178 3178 3178 3178 3179 3179 3179 3180 3180 3181 3181 3181 3182 3182 3183 3183
3165 3166 3166 3167 3168 3169 3169 3170 3171 3171 3172 3172 3173 3174 3175 3176 3177 3176 3177 3177 3178 3178 3178 3179 3179 3179 3180 3180 3181 3181 3181 3182 3182
3164 3166 3166 3166 3167 3168 3168 3168 3170 3171 3172 3172 3172 3173 3174 3176 3175 3175 3176 3177 3177 3177 3179 3178 3178 3179 3178 3179 3180 3180 3180 3181 3181
3162 3163 3164 3165 3166 3167 3167 3167 3168 3169 3170 3171 3171 3172 3172 3173 3172 3174 3174 3175 3176 3176 3176 3177 3177 3178 3178 3178 3178 3179 3179 3179 3180
3159 3160 3161 3163 3163 3164 3165 3165 3166 3167 3168 3169 3170 3170 3171 3171 3170 3172 3172 3174 3174 3175 3176 3176 3175 3176 3176 3176 3176 3176 3177 3178 3178
3156 3157 3158 3159 3160 3161 3161 3163 3164 3164 3165 3166 3167 3168 3168 3168 3168 3169 3170 3170 3171 3172 3172 3172 3174 3174 3174 3173 3173 3173 3174 3176 3177
3152 3153 3154 3155 3156 3156 3157 3158 3159 3160 3161 3162 3164 3165 3165 3165 3165 3165 3166 3166 3167 3169 3168 3169 3171 3172 3173 3170 3170 3171 3172 3173 3174
3147 3148 3149 3150 3151 3153 3154 3155 3155 3156 3156 3157 3159 3160 3161 3162 3161 3161 3162 3162 3163 3164 3164 3166 3167 3168 3166 3169 3170 3170 3169 3170 3170
3142 3143 3144 3145 3146 3147 3148 3149 3150 3151 3152 3152 3153 3154 3155 3156 3156 3157 3157 3158 3159 3159 3160 3161 3163 3163 3162 3165 3164 3166 3167 3167 3168
3137 3137 3139 3140 3140 3141 3142 3142 3143 3144 3145 3145 3146 3148 3148 3150 3149 3150 3151 3152 3153 3154 3155 3156 3157 3158 3159 3160 3160 3161 3163 3163 3163
3130 3131 3132 3133 3134 3134 3135 3136 3137 3138 3138 3139 3140 3140 3140 3141 3141 3143 3144 3145 3145 3147 3147 3150 3151 3152 3153 3154 3153 3154 3157 3157 3156
3124 3125 3125 3126 3127 3127 3128 3129 3130 3131 3131 3132 3132 3133 3134 3134 3134 3134 3135 3137 3137 3138 3139 3140 3142 3143 3144 3147 3146 3147 3149 3150 3151
3117 3118 3118 3119 3120 3120 3121 3121 3122 3123 3124 3125 3125 3125 3126 3126 3126 3126 3126 3127 3127 3129 3130 3131 3132 3133 3134 3136 3137 3138 3141 3143 3143
3110 3110 3111 3111 3112 3113 3113 3113 3114 3115 3116 3118 3119 3117 3117 3118 3118 3118 3117 3118 3118 3118 3119 3121 3122 3122 3123 3126 3126 3129 3131 3133 3134
3102 3102 3103 3103 3104 3104 3105 3105 3105 3105 3108 3108 3109 3110 3109 3111 3108 3108 3107 3108 3107 3107 3107 3108 3109 3111 3112 3113 3114 3118 3119 3121 3123
3094 3095 3095 3095 3096 3097 3096 3096 3096 3095 3095 3098 3100 3099 3098 3097 3098 3098 3098 3096 3097 3096 3096 3096 3096 3097 3099 3100 3101 3104 3106 3108 3110
3087 3087 3087 3087 3087 3088 3088 3087 3086 3086 3085 3083 3085 3086 3086 3085 3085 3088 3088 3086 3086 3085 3085 3084 3084 3083 3084 3085 3087 3090 3092 3094 3096
3079 3079 3079 3079 3079 3079 3078 3077 3076 3075 3075 3073 3073 3073 3072 3072 3070 3069 3075 3075 3074 3074 3074 3072 3072 3071 3071 3072 3072 3074 3076 3079 3081